Weather observations for the past three days for
Chanute, Chanute Martin Johnson Airport
Metric (Imperial)
Date Time (cdt) Wind (kph) Vis. (km) Weather Sky Cond. Temperature (ºC) Relative Humidity Wind Chill (°C) Heat Index (°C) Pressure Precipitation (cm)
Air Dwpt 6 hour altimeter (cm) sea level (mb) 1 hr 3 hr 6 hr
Max. Min.
21 11:52 S 39 G 61 16.09 Mostly Cloudy and Breezy SCT026 BKN032 27.8 21.1 67% 30 75.21 1001.5
21 10:52 S 37 G 57 16.09 Overcast and Breezy BKN029 OVC035 26.7 20.6 69% 28 75.21 1001.5
21 09:52 S 35 G 63 16.09 Overcast and Breezy BKN027 OVC032 25.6 20 71% 27 75.21 1001.4
21 08:52 S 43 G 63 16.09 Fair and Windy CLR 26.1 20 69% 27 75.21 1001.5
21 07:52 S 30 G 44 16.09 Fair CLR 24.4 18.9 72% 25 75.23 1001.7
21 06:52 S 30 16.09 Fair CLR 23.3 18.3 24.4 22.2 74% 75.26 1001.9
21 05:52 SE 20 G 37 16.09 Fair CLR 22.8 18.3 76% 75.29 1002.3
21 04:52 S 22 G 37 16.09 Fair CLR 22.8 18.3 76% 75.31 1002.8
21 03:52 S 20 16.09 Fair CLR 23.3 18.9 76% 75.39 1003.6
21 02:52 S 24 G 37 16.09 Fair CLR 23.9 18.9 74% 25 75.39 1003.9
21 01:52 S 20 16.09 Fair CLR 24.4 18.9 72% 25 75.46 1004.7
21 00:52 S 20 16.09 Fair CLR 24.4 19.4 28.3 23.9 74% 25 75.51 1005.3
20 23:52 S 19 16.09 Fair CLR 25 19.4 71% 26 75.54 1005.9
20 22:52 S 19 16.09 Fair CLR 25.6 20 71% 27 75.57 1006.3
20 21:52 SE 13 16.09 Fair CLR 25.6 20.6 74% 27 75.59 1006.4
20 20:52 SE 13 16.09 A Few Clouds FEW048 25.6 20.6 74% 27 75.57 1006.4
20 19:52 SE 13 16.09 Fair CLR 27.2 20.6 67% 29 75.57 1006.4
20 18:52 SE 17 16.09 Mostly Cloudy FEW046 BKN065 BKN075 28.3 20.6 29.4 27.2 63% 30 75.59 1006.6
20 17:52 S 26 G 37 16.09 Partly Cloudy SCT075 29.4 20.6 59% 32 75.62 1006.8
20 16:52 SE 26 G 39 16.09 Mostly Cloudy BKN070 29.4 20.6 59% 32 75.64 1007.1
20 15:52 S 19 16.09 Overcast OVC065 28.3 20.6 63% 30 75.67 1007.7
20 14:52 S 22 16.09 Overcast FEW040 OVC055 27.8 20.6 65% 30 75.74 1008.6
20 13:52 SE 17 16.09 Partly Cloudy SCT040 SCT046 SCT090 28.3 21.1 65% 31 75.77 1008.9
20 12:52 S 13 16.09 Overcast BKN075 OVC100 27.2 19.4 27.8 19.4 62% 29 75.82 1009.6
20 11:52 S 15 16.09 Overcast OVC070 26.7 18.9 62% 28 75.84 1010.1
20 10:52 S 26 G 37 16.09 Partly Cloudy SCT080 27.8 18.3 56% 29 75.79 1009.5
20 09:52 SW 17 16.09 Fair CLR 25.6 16.7 58% 26 75.79 1009.2
20 08:52 SW 11 16.09 Mostly Cloudy BKN090 BKN110 23.3 16.7 67% 75.77 1008.9
20 07:52 S 7 16.09 Partly Cloudy SCT110 19.4 16.1 81% 75.72 1008.4
20 06:52 SE 19 16.09 A Few Clouds FEW110 20.6 15 24.4 18.9 70% 75.67 1007.5 0.05
20 05:52 S 35 G 56 16.09 Fair and Breezy CLR 21.1 14.4 66% 75.64 1007.1
20 04:52 S 37 G 65 16.09 Fair and Breezy CLR 22.8 12.8 53% 75.51 1005.6
20 03:52 S 44 G 70 16.09 Light Rain and Windy FEW050 BKN100 BKN120 21.1 15 68% 75.59 1006.5 0.03 0.05
20 02:52 S 30 G 41 16.09 Fair CLR 19.4 16.7 84% 75.74 1008.7 0.03
20 01:52 SE 15 16.09 Light Rain BKN065 BKN090 BKN110 18.9 16.7 87% 75.87 1010.3
20 00:52 SE 7 16.09 Overcast BKN065 OVC080 19.4 16.7 27.2 18.3 84% 75.97 1011.9 1.02
19 23:52 Vrbl 11 G 26 16.09 Overcast BKN070 OVC080 19.4 16.7 84% 76 1012.2 0.58
19 22:52 NW 22 G 35 6.44 Thunderstorm Rain Fog/Mist OVC060 18.9 17.2 90% 76.05 1012.9 0.43
19 21:52 NW 56 G 87 16.09 Thunderstorm in Vicinity Light Rain and Windy SCT048 BKN060 BKN120 23.9 14.4 55% 25 76.12 1013.7
19 20:52 S 20 16.09 Fair CLR 26.7 17.8 58% 28 75.64 1007.3
19 19:52 SE 24 16.09 Fair CLR 27.2 17.2 54% 28 75.51 1005.7
19 18:52 SE 30 16.09 Fair CLR 28.9 17.2 31.1 28.3 49% 29 75.57 1006.4
19 17:52 SE 35 G 56 16.09 Fair and Breezy CLR 30 17.2 46% 30 75.67 1007.6
19 16:52 SE 35 G 57 16.09 Fair and Breezy CLR 30.6 17.8 46% 31 75.69 1008.1
19 15:52 SE 39 16.09 Fair and Breezy CLR 30.6 17.8 46% 31 75.82 1009.6
19 14:52 S 24 16.09 Fair CLR 30.6 18.3 48% 32 75.92 1011.1
19 13:52 S 22 G 35 16.09 Fair CLR 30 17.8 48% 31 76 1012.2
19 12:52 S 17 G 31 16.09 Fair CLR 29.4 18.3 30 19.4 51% 30 76.1 1013.2
19 11:52 S 22 16.09 Fair CLR 29.4 18.3 51% 30 76.12 1013.8
19 10:52 S 20 16.09 Fair CLR 28.3 18.9 57% 30 76.15 1014.0
19 09:52 S 13 16.09 Fair CLR 26.7 18.9 62% 28 76.2 1014.6
19 08:52 SW 7 16.09 Fair CLR 24.4 18.9 72% 25 76.23 1015.2
19 07:52 SW 6 16.09 Fair CLR 22.2 18.3 79% 76.2 1014.7
19 06:52 SE 9 16.09 Fair CLR 19.4 17.2 21.1 18.3 87% 76.15 1014.2
19 05:52 Calm 16.09 Fair CLR 18.9 16.7 87% 76.12 1013.9
19 04:52 S 6 16.09 Fair CLR 19.4 16.7 84% 76.07 1013.1
19 03:52 S 9 16.09 Fair CLR 19.4 16.7 84% 76.05 1012.7
19 02:52 S 9 16.09 Fair CLR 20.6 16.7 78% 76.07 1012.9
19 01:52 S 11 16.09 Fair CLR 20 17.2 84% 76.05 1012.6
19 00:52 S 9 16.09 Fair CLR 20.6 17.2 29.4 20.6 81% 76.05 1012.8
18 23:52 S 9 16.09 Fair CLR 21.1 17.8 82% 76.05 1012.7
18 22:52 SE 7 16.09 Fair CLR 21.7 18.3 81% 76.05 1012.7
18 21:52 SE 7 16.09 Fair CLR 22.8 18.9 79% 76 1012.0
18 20:52 S 7 16.09 Fair CLR 23.9 18.9 74% 25 75.95 1011.3
18 19:52 S 9 16.09 Fair CLR 27.2 19.4 62% 29 75.9 1010.6
18 18:52 S 11 16.09 Fair CLR 29.4 18.9 30.6 28.9 53% 31 75.87 1010.3
18 17:52 S 19 G 30 16.09 Fair CLR 30 18.3 49% 31 75.84 1010.2
18 16:52 S 19 16.09 Fair CLR 30.6 18.9 50% 32 75.84 1010.0
18 15:52 S 20 16.09 Fair CLR 30 18.9 51% 31 75.84 1010.2
18 14:52 S 19 16.09 Fair CLR 30 18.9 51% 31 75.9 1010.8
18 13:52 S 17 16.09 Fair CLR 29.4 18.9 53% 31 75.9 1010.9
18 12:52 S 15 16.09 Fair CLR 28.9 18.3 28.9 17.2 53% 30 75.95 1011.3
Date Time (cdt) Wind (kph) Vis. (km) Weather Sky Cond. Air Dwpt Max. Min. Relative Humidity Wind Chill (°C) Heat Index (°C) altimeter (cm) sea level (mb) 1 hr 3 hr 6 hr
6 hour
Temperature (ºC) Pressure Precipitation (cm)